Total_Precipitation_Accumulation
1.00 0.98 0.94 0.86 0.85 0.85 0.87 0.94 1.03 0.92 0.67 0.48 0.45 0.47 0.51 0.54 0.60 0.57 0.51 0.61 0.62 0.59 0.61 0.62 0.59 0.56 0.53 0.54 0.58 0.67 0.71 0.71 0.72 0.75 0.77 0.77 0.79 0.87
0.93 0.95 0.92 0.86 0.84 0.86 0.89 0.93 1.02 1.08 0.91 0.59 0.48 0.49 0.53 0.54 0.60 0.53 0.48 0.56 0.54 0.53 0.52 0.51 0.49 0.46 0.44 0.44 0.45 0.51 0.56 0.60 0.64 0.70 0.78 0.84 0.87 0.93
0.85 0.86 0.87 0.86 0.87 0.88 0.89 0.93 0.98 1.04 1.04 0.78 0.62 0.62 0.65 0.62 0.60 0.52 0.46 0.43 0.41 0.47 0.44 0.41 0.39 0.37 0.36 0.35 0.36 0.39 0.42 0.47 0.54 0.62 0.71 0.80 0.85 0.86
0.74 0.77 0.78 0.80 0.82 0.84 0.89 0.94 0.95 0.97 1.00 0.88 0.69 0.60 0.59 0.56 0.53 0.48 0.41 0.35 0.31 0.39 0.38 0.35 0.33 0.30 0.29 0.28 0.31 0.35 0.37 0.39 0.44 0.49 0.54 0.63 0.70 0.74
0.66 0.69 0.71 0.77 0.82 0.81 0.83 0.85 0.85 0.85 0.87 0.85 0.70 0.56 0.50 0.46 0.45 0.40 0.34 0.30 0.26 0.29 0.30 0.28 0.27 0.27 0.27 0.27 0.29 0.30 0.29 0.28 0.30 0.33 0.38 0.45 0.50 0.57
0.65 0.67 0.68 0.71 0.73 0.76 0.79 0.80 0.79 0.78 0.78 0.80 0.74 0.64 0.56 0.50 0.50 0.46 0.39 0.32 0.28 0.24 0.27 0.26 0.25 0.24 0.21 0.19 0.18 0.19 0.21 0.22 0.26 0.31 0.36 0.40 0.44 0.49
0.66 0.67 0.69 0.74 0.75 0.74 0.73 0.72 0.72 0.75 0.78 0.83 0.79 0.66 0.53 0.48 0.46 0.41 0.39 0.37 0.35 0.30 0.29 0.26 0.22 0.19 0.17 0.16 0.16 0.17 0.20 0.24 0.28 0.32 0.37 0.42 0.46 0.50
0.65 0.63 0.62 0.65 0.64 0.64 0.63 0.62 0.66 0.73 0.82 0.85 0.74 0.57 0.42 0.36 0.36 0.41 0.45 0.49 0.42 0.26 0.25 0.23 0.21 0.19 0.15 0.14 0.18 0.21 0.22 0.23 0.25 0.27 0.30 0.34 0.39 0.44
0.62 0.57 0.53 0.51 0.52 0.45 0.47 0.51 0.53 0.60 0.62 0.56 0.48 0.41 0.36 0.34 0.42 0.51 0.49 0.46 0.34 0.23 0.27 0.30 0.24 0.21 0.17 0.16 0.20 0.20 0.20 0.22 0.23 0.26 0.28 0.30 0.34 0.38
0.48 0.43 0.40 0.36 0.34 0.35 0.37 0.45 0.44 0.42 0.40 0.37 0.34 0.32 0.31 0.33 0.41 0.50 0.51 0.49 0.38 0.29 0.27 0.30 0.22 0.18 0.16 0.16 0.21 0.22 0.22 0.24 0.28 0.32 0.33 0.33 0.34 0.36
0.36 0.33 0.33 0.31 0.35 0.41 0.41 0.43 0.34 0.29 0.32 0.36 0.38 0.37 0.37 0.36 0.37 0.48 0.57 0.61 0.51 0.32 0.24 0.24 0.20 0.18 0.18 0.18 0.19 0.23 0.23 0.23 0.24 0.26 0.27 0.29 0.32 0.35
0.27 0.27 0.31 0.31 0.38 0.44 0.41 0.36 0.30 0.26 0.28 0.31 0.35 0.36 0.35 0.36 0.40 0.41 0.54 0.74 0.62 0.41 0.20 0.23 0.25 0.29 0.40 0.22 0.18 0.19 0.21 0.22 0.22 0.24 0.26 0.28 0.32 0.35
0.22 0.23 0.25 0.35 0.41 0.43 0.37 0.30 0.30 0.33 0.30 0.29 0.30 0.32 0.33 0.35 0.37 0.35 0.40 0.70 0.87 0.59 0.25 0.44 0.56 0.39 0.50 0.33 0.19 0.18 0.18 0.19 0.21 0.24 0.28 0.32 0.37 0.48
0.20 0.20 0.23 0.35 0.37 0.35 0.33 0.32 0.35 0.34 0.28 0.31 0.34 0.33 0.31 0.30 0.29 0.31 0.32 0.37 0.50 0.57 0.39 0.61 0.89 0.63 0.69 0.53 0.27 0.19 0.18 0.19 0.25 0.33 0.37 0.44 0.48 0.53
0.22 0.24 0.28 0.30 0.29 0.29 0.32 0.35 0.34 0.30 0.29 0.32 0.32 0.31 0.29 0.29 0.31 0.35 0.37 0.36 0.35 0.33 0.34 0.41 0.63 0.68 0.80 0.74 0.46 0.26 0.24 0.22 0.25 0.37 0.44 0.46 0.48 0.52
0.26 0.26 0.25 0.25 0.26 0.27 0.29 0.31 0.32 0.32 0.34 0.36 0.33 0.30 0.31 0.34 0.36 0.38 0.42 0.42 0.44 0.38 0.33 0.32 0.39 0.61 0.74 0.55 0.55 0.45 0.36 0.41 0.36 0.43 0.48 0.49 0.54 0.60
0.34 0.29 0.27 0.26 0.25 0.24 0.25 0.27 0.29 0.32 0.36 0.36 0.38 0.39 0.38 0.37 0.36 0.36 0.41 0.47 0.50 0.41 0.34 0.33 0.35 0.40 0.48 0.51 0.53 0.42 0.38 0.45 0.54 0.63 0.68 0.67 0.61 0.66
0.42 0.33 0.27 0.25 0.25 0.24 0.25 0.28 0.30 0.33 0.37 0.42 0.44 0.46 0.48 0.46 0.42 0.37 0.38 0.46 0.48 0.41 0.37 0.35 0.39 0.46 0.43 0.37 0.42 0.50 0.51 0.58 0.65 0.70 0.81 0.91 0.76 0.64
0.40 0.30 0.24 0.22 0.23 0.25 0.29 0.32 0.33 0.34 0.40 0.48 0.53 0.55 0.57 0.53 0.50 0.46 0.42 0.44 0.43 0.39 0.38 0.40 0.49 0.71 0.73 0.45 0.28 0.45 0.71 0.77 0.73 0.76 0.83 0.97 1.08 0.88
0.30 0.25 0.23 0.23 0.25 0.29 0.33 0.36 0.39 0.41 0.44 0.48 0.51 0.56 0.62 0.63 0.57 0.51 0.49 0.50 0.51 0.46 0.40 0.37 0.44 0.72 1.04 0.87 0.61 0.49 0.57 0.82 1.01 1.06 0.89 0.75 0.79 0.76
0.22 0.22 0.24 0.28 0.33 0.36 0.39 0.41 0.45 0.47 0.47 0.50 0.52 0.55 0.62 0.69 0.61 0.52 0.53 0.51 0.55 0.55 0.49 0.39 0.39 0.52 0.75 0.89 0.73 0.50 0.52 0.59 0.85 1.20 1.15 0.94 0.73 0.62
0.23 0.26 0.30 0.35 0.42 0.46 0.47 0.48 0.49 0.46 0.47 0.51 0.52 0.54 0.58 0.67 0.67 0.59 0.57 0.58 0.55 0.54 0.51 0.42 0.40 0.47 0.60 0.77 0.64 0.45 0.44 0.42 0.41 0.48 0.79 1.22 1.62 1.69
0.29 0.32 0.35 0.40 0.46 0.50 0.52 0.50 0.49 0.45 0.46 0.53 0.56 0.56 0.59 0.61 0.59 0.61 0.61 0.62 0.63 0.58 0.53 0.48 0.42 0.42 0.45 0.51 0.55 0.48 0.41 0.37 0.34 0.36 0.53 0.69 0.95 1.20